USNNUSRR

Guest
Details From USNN - NIZHNEVARTOVSK
To USRR - SURGUT
Flight Number -
Tags generated
Created
Modified
Stats Distance 92 nm / 171 km
Max Altitude 0 ft / 0 m
Waypoints 2
Social Downloads 1
Likes 0
Share VATSIM

Download

Looking for another format? Having issues loading an existing format? Contact us
Advertisement - Login to hide

Notes

Basic altitude profile: - Ascent Rate: 2500ft/min - Ascent Speed: 250kts - Cruise Altitude: 35000ft - Cruise Speed: 420kts - Descent Rate: 1500ft/min - Descent Speed: 250kts Options: - Use NATs: yes - Use PACOTS: yes - Use low airways: yes - Use high airways: yes

Route

USNN USRR

ID Type Via Altitude Latitude Longitude Leg Dist Tot Dist Heading (true) Name
O USNN APT - 0 ft / 0 m 60.94927˚ 76.48362˚ - 0 nm - NIZHNEVARTOVSK
O USRR APT - 0 ft / 0 m 61.34369˚ 73.40184˚ 92 nm 92 nm 286° / 284° SURGUT

Altitude Profile

Advertisement - Login to hide

USNN

Details ICAO USNN (NJC)
Name NIZHNEVARTOVSK
Region Russia
Timezone Asia/Yekaterinburg (UTC+5.0)
Stats Elevation 177 ft / 54 m (AMSL)
Location 60.949272° 76.483618°
Runways 1
Magnetic Variation 15.748° E

METAR

USNN 261930Z 36002MPS 9999 OVC040 00/M06 Q1015 R03/0///65 NOSIG RMK QFE757

Decode

TAF

TAF USNN 261700Z 2618/2718 34003MPS 9999 SCT030 BECMG 2703/2705 22003MPS BECMG 2712/2714 16006G12MPS

Decode

Departure Runways

ID Width Length Bearing (true) Bearing (mag) Surface Threshold Offset Overrun Length
03 197 ft / 60 m 10,417 ft / 3,175 m 42.34° 26.59° Asphalt 0 ft / 0 m 245 ft / 75 m
21 197 ft / 60 m 10,417 ft / 3,175 m 222.38° 206.63° Asphalt 0 ft / 0 m 245 ft / 75 m

USRR

Details ICAO USRR (SGC)
Name SURGUT
Region Russia
Timezone Asia/Yekaterinburg (UTC+5.0)
Stats Elevation 200 ft / 61 m (AMSL)
Location 61.343693° 73.401842°
Runways 1
Magnetic Variation 17.122° E

METAR

USRR 261930Z 28002MPS CAVOK M03/M05 Q1015 R25/CLRD60 NOSIG RMK QFE756

Decode

TAF

TAF TAF USRR 261655Z 2618/2718 35003MPS 9999 BKN015 BECMG 2621/2623 20003MPS TEMPO 2621/2702 SCT005 BECMG 2705/2706 22007G14MPS

Decode

Destination Runways

ID Width Length Bearing (true) Bearing (mag) Surface Threshold Offset Overrun Length
07 148 ft / 45 m 9,112 ft / 2,778 m 89.72° 72.60° Asphalt 0 ft / 0 m 165 ft / 50 m
25 148 ft / 45 m 9,112 ft / 2,778 m 269.76° 252.64° Asphalt 0 ft / 0 m 165 ft / 50 m

Popular Alternatives